Regional Weather Roundup
Issued by NWS

Home | Current Version | Previous Version | Graphics & Text | Print | Product List | Glossary On
Versions: 1 2 3 4 5 6 7 8 9 10 11 12 13 14 15 16 17 18 19 20 21 22 23 24 25 26 27 28 29 30 31 32 33 34 35 36 37 38 39 40 41 42 43 44 45 46 47 48 49 50
000
ASUS44 KMEG 170400
RWRTN
TENNESSEE HOURLY STATE WEATHER ROUNDUP
NATIONAL WEATHER SERVICE MEMPHIS TN
1100 PM CDT WED APR 16 2014

TNZ002-004-019-021-049-052-054-088>092-170500-
WEST TENNESSEE

CITY           SKY/WX    TMP DP  RH WIND       PRES   REMARKS
MEMPHIS INTL   PTCLDY    50  34  54 CALM      30.16R
NWS MEMPHIS      N/A     45 N/A N/A MISG        N/A
JACKSON        PTCLDY    45  32  60 S3        30.18R
DYERSBURG      CLEAR     46  28  49 E5        30.18S
UNION CITY     CLEAR     43  34  70 E3        30.16S
LEXINGTON      CLEAR     43  36  75 CALM      30.18R
$$

TNZ008-025-027-028-033-062-065-066-170500-
NORTH MIDDLE TENNESSEE

CITY           SKY/WX    TMP DP  RH WIND       PRES   REMARKS
NASHVILLE      PTCLDY    47  35  63 S3        30.22R
CLARKSVILLE    PTCLDY    44  33  65 NE3       30.20R
COOKEVILLE     CLEAR     46  32  57 SE3       30.23R
CROSSVILLE     CLEAR     46  28  49 S6        30.25R
$$

TNZ061-075-076-078-094-096-097-170500-
SOUTH MIDDLE TENNESSEE

CITY           SKY/WX    TMP DP  RH WIND       PRES   REMARKS
TULLAHOMA      CLEAR     52  27  37 SE3       30.24R
WINCHESTER     CLEAR     52  30  43 SE6       30.24R
MCMINNVILLE    CLEAR     50  28  43 S5        30.23R
COLUMBIA       CLEAR     43  37  81 CALM      30.19R
$$

TNZ017-018-042-046-047-170500-
NORTHEAST TENNESSEE

CITY           SKY/WX    TMP DP  RH WIND       PRES   REMARKS
TRI CITIES     CLEAR     48  18  30 SE8G17    30.31R
ELIZABETHTON   CLEAR     45  19  36 CALM      30.33S
$$

TNZ012-013-036-069-073-074-170500-
CENTRAL EAST TENNESSEE

CITY           SKY/WX    TMP DP  RH WIND       PRES   REMARKS
KNOXVILLE      PTCLDY    45  34  65 S3        30.26R
OAK RIDGE      CLEAR     43  35  73 CALM      30.27R
$$

TNZ083-085-099-170500-
SOUTHEAST TENNESSEE

CITY           SKY/WX    TMP DP  RH WIND       PRES   REMARKS
CHATTANOOGA    CLEAR     54  26  34 S7        30.29R
$$

SKY/WX REPORTED AS FAIR MEANS FEW OR NO CLOUDS BELOW
12 THOUSAND FEET.




USA.gov is the U.S. government's official web portal to all federal, state and local government web resources and services.